Weather in Tresorukovo

Russia / Voronezh Oblast     51°12′44″N   39°30′52″E
temp.,
°C
wind,
m/s
gust,
m/s
humid.,
%
clouds,
%
prec.,
mm/h
press.,
hPa
HPBL,
m
16 june, wed
wed1600:00+18nw228798 0.0 100915
03:00+17nw229287 0.0 101018
06:00+18nw2491100 0.0 1010133
09:00+22nw2377100 0.0 1011452
12:00+25nw116498 0.9 1011871
15:00+26nw225896 2.4 10121259
18:00+25n226510 0.0 1012984
21:00+20ne34830 0.0 101465
17 june, thu
thu1700:00+18nne36930 0.0 1015102
03:00+16nne37960 0.0 1016148
06:00+18nne510910 0.0 1017305
09:00+22ne79753 0.0 1018779
12:00+24ne78630 0.0 10191199
15:00+25ne78602 0.0 10191542
18:00+23ne69701 0.0 10201086
21:00+18ne613750 0.0 1022410
18 june, fri
fri1800:00+15ne513780 0.0 1022285
03:00+13ene410860 0.0 1024194
06:00+14ene410810 0.0 1025277
09:00+20ne68665 0.0 1025656
12:00+22ene78520 0.0 10251293
15:00+23ene67520 0.0 10251534
18:00+22ene57640 0.0 10251253
21:00+17ne48830 0.0 1026148
19 june, sat
sat1900:00+14ene48890 0.0 1027140
03:00+13ene37930 0.0 1027116
06:00+15e48860 0.0 1028204
09:00+21ese57630 0.0 1028715
12:00+23e67490 0.0 10281357
15:00+24e67480 0.0 10271415
18:00+23ese46610 0.0 1026961
21:00+17e33790 0.0 102742
20 june, sun
sun2000:00+15e34860 0.0 102753
03:00+13e34880 0.0 102749
06:00+15e37830 0.0 1027187
09:00+21e47610 0.0 1026608
12:00+25e56490 0.0 10251318
15:00+26e56480 0.0 10231503
18:00+25e46600 0.0 1022794
21:00+19ene457871 0.0 102263